Theta_e
346 348 345 343 342 345 346 347 349 349 347 347 346 347 347 346 346 345 349 349 349 349 349 349 349 348 349 348 348 348 347 347 348 348 348 348 348 347 347 347 346 346 347 346 348 347 347 346 343 346 346 344 346 348 347 347 347 347 347 346 346 347 347 347 347 347 347 346 346 346 346 345 345 345 347 347 344 343 343 342 343 341 343 344 341
343 346 345 348 345 344 345 345 347 348 348 348 347 346 346 347 345 346 348 349 349 349 348 349 349 349 349 348 348 348 348 348 347 347 347 347 347 346 346 346 346 346 345 346 347 346 345 346 345 346 345 345 345 347 346 346 346 346 346 346 346 346 346 346 347 347 347 347 346 345 345 344 345 343 344 344 343 344 343 343 342 343 344 343 341
347 346 348 348 345 346 346 347 347 348 348 348 346 345 346 348 348 347 349 349 349 349 349 348 348 348 348 348 347 347 347 347 347 347 347 346 346 346 346 344 345 344 345 346 346 345 345 347 346 345 346 346 345 345 346 346 346 346 346 346 346 346 346 346 346 347 347 347 347 347 347 345 345 343 343 343 343 343 345 345 345 346 344 342 341
347 347 350 348 344 345 347 348 347 346 348 347 347 348 348 348 347 347 349 349 348 348 348 348 348 349 348 347 348 348 347 347 347 347 346 346 346 346 346 346 345 346 347 347 346 346 345 345 345 345 344 345 345 346 346 345 345 345 345 346 346 346 346 346 346 346 346 344 344 345 344 344 345 344 344 343 343 343 344 345 345 345 343 341 342
347 350 353 354 351 347 346 346 346 347 347 347 347 347 347 346 347 348 348 349 349 348 348 347 348 348 347 347 347 346 347 347 346 346 346 345 345 346 346 346 346 346 346 346 346 345 345 345 346 345 345 346 346 346 346 345 345 345 345 345 346 346 346 346 345 346 345 342 343 347 345 344 345 343 343 343 341 342 342 343 342 344 345 343 343
349 350 353 353 350 349 346 346 346 345 345 346 346 345 346 347 347 348 348 348 348 348 347 347 347 347 346 346 346 346 346 346 346 346 346 346 346 345 345 345 345 345 345 345 345 345 345 345 345 345 344 345 346 346 346 345 345 345 345 345 344 344 345 345 344 342 343 345 346 345 344 344 347 346 343 343 343 343 342 342 343 343 344 344 344
350 350 349 351 351 348 346 346 346 344 343 345 345 345 345 347 347 347 347 347 347 347 347 347 347 346 346 345 344 346 346 346 346 346 346 346 346 345 345 344 345 345 345 345 345 345 344 344 345 345 345 345 346 345 345 344 344 345 345 345 345 344 344 344 343 342 343 347 349 347 344 345 347 348 343 342 342 342 343 343 342 343 344 344 344
350 350 351 352 351 348 346 346 345 343 342 343 344 346 346 347 347 346 346 346 346 346 346 346 346 346 345 346 346 346 345 345 345 345 345 345 345 345 345 345 345 345 345 345 345 345 345 344 345 345 345 344 345 345 345 344 344 345 345 346 345 343 344 344 343 342 341 348 348 348 348 347 348 349 343 343 342 342 343 343 343 343 343 343 344
348 349 349 349 351 346 346 346 345 346 345 345 345 344 345 346 345 346 346 346 345 345 345 345 345 345 345 345 345 345 345 344 344 344 344 344 345 345 345 345 345 344 344 345 345 345 345 344 344 343 344 344 344 344 345 344 345 345 345 345 344 342 343 343 342 343 348 347 348 347 348 348 348 348 344 343 343 343 343 342 343 343 343 344 343
348 350 349 350 351 346 346 345 346 346 345 345 345 345 345 346 346 345 345 346 346 345 345 344 344 345 345 345 345 345 345 344 345 344 345 345 345 344 344 345 345 345 344 345 345 345 345 344 345 345 345 345 345 345 344 344 345 345 345 345 343 342 342 343 344 345 346 348 347 345 348 344 346 348 346 343 343 343 344 345 345 344 344 343 344
349 349 348 350 350 346 345 344 346 345 345 346 345 345 345 346 345 346 345 345 345 345 345 345 345 346 345 344 344 345 344 344 344 345 345 344 342 343 344 344 345 345 346 345 345 345 345 345 345 346 346 345 345 345 344 344 345 345 345 345 343 342 342 343 345 348 347 345 346 346 346 344 347 348 344 343 344 343 344 344 344 344 343 342 343
347 347 348 348 347 344 343 343 344 345 345 346 345 344 344 344 345 345 345 345 346 345 345 345 345 344 344 344 344 344 344 344 344 343 343 342 343 344 344 344 345 345 345 345 346 346 346 346 346 346 346 345 345 345 345 345 345 345 345 344 343 343 344 342 345 345 342 344 347 347 348 347 346 345 343 343 343 344 343 344 344 343 342 342 342
348 348 346 347 347 345 344 344 345 345 345 346 345 344 344 344 345 345 345 344 344 344 344 344 344 344 344 344 343 343 344 342 341 341 342 343 343 343 344 344 344 344 344 344 344 346 346 347 346 345 345 346 346 345 345 346 345 345 345 344 343 344 344 344 344 341 342 346 345 347 348 348 347 342 342 342 343 343 342 342 342 342 341 342 342
347 348 347 345 345 346 343 344 344 345 345 345 345 344 343 343 343 344 344 344 343 343 343 343 343 343 343 344 343 343 342 341 341 341 342 343 344 344 344 344 344 343 343 343 343 343 342 343 345 346 346 346 347 345 345 345 345 345 344 344 343 342 343 346 348 343 342 344 346 347 347 346 342 342 342 342 343 343 343 343 342 342 341 342 341
347 349 349 347 344 347 345 344 344 344 344 344 344 343 343 343 342 342 341 341 342 342 343 343 343 343 343 343 343 341 341 341 341 342 342 342 342 343 344 343 343 344 344 344 343 342 342 342 343 344 346 347 347 347 345 345 345 344 345 344 343 344 342 341 341 342 341 343 342 344 346 343 344 342 342 342 342 343 343 342 341 342 342 341 342
349 349 350 348 347 347 346 345 345 345 344 344 343 344 342 341 341 341 341 341 341 343 343 343 343 343 343 342 341 340 340 340 341 340 340 340 341 341 342 343 342 343 344 344 343 342 341 340 342 345 346 346 348 348 347 346 345 345 345 344 343 343 343 344 342 341 342 340 342 345 343 342 344 344 343 343 344 343 343 342 342 342 341 341 341
348 349 349 348 348 349 348 347 345 345 344 344 344 342 342 342 341 341 342 343 342 342 343 344 343 343 342 342 341 342 341 341 340 340 340 339 340 341 341 341 342 342 343 344 343 342 341 340 339 341 343 346 348 348 348 348 347 345 345 343 344 344 345 344 340 340 340 338 339 336 340 345 344 343 342 343 343 344 343 343 342 342 341 340 340
345 347 348 349 349 350 350 350 349 348 346 346 344 343 343 343 343 343 342 342 342 341 342 342 343 343 343 343 343 343 342 341 340 339 340 339 339 339 339 339 340 340 340 341 341 341 340 340 339 339 340 342 344 348 348 348 348 345 344 345 345 345 343 344 339 339 338 337 334 340 338 343 343 343 342 343 343 343 343 343 342 342 342 342 341
343 346 347 348 349 349 349 349 350 348 348 347 348 346 344 344 342 343 343 343 341 341 341 340 340 339 339 339 338 337 338 337 338 339 338 338 338 337 337 338 338 338 338 338 339 339 338 339 337 338 338 340 343 346 349 349 347 345 345 345 345 344 339 340 336 335 335 334 336 341 341 341 342 341 342 341 342 342 343 343 343 343 342 342 341
343 346 346 348 349 349 348 347 348 349 349 349 349 348 343 343 343 343 343 343 341 340 339 338 339 337 338 336 335 335 334 334 334 335 335 336 337 337 337 335 336 336 336 336 336 337 337 336 337 336 337 340 344 346 349 348 346 344 344 344 345 342 336 335 337 335 334 333 339 339 339 339 340 341 342 342 341 343 342 342 342 342 342 341 341
343 345 344 344 347 348 348 347 349 350 349 348 346 345 341 341 342 341 341 339 338 337 336 335 334 336 335 335 335 337 338 336 334 333 332 334 335 335 336 335 334 334 334 334 334 334 334 334 335 335 335 337 347 347 348 348 345 344 345 345 340 334 334 335 335 334 334 335 335 337 337 337 337 337 339 341 340 341 342 342 341 341 342 340 340
338 339 344 346 346 347 347 347 347 347 345 341 340 339 340 339 340 340 341 339 335 334 336 336 333 337 334 335 337 335 333 333 333 330 332 331 331 333 334 334 333 333 332 333 332 333 332 333 333 333 332 333 340 342 346 346 344 344 345 345 333 333 334 334 333 332 332 334 335 334 334 335 336 336 336 337 339 339 339 340 340 340 339 339 339
336 337 339 344 345 345 347 345 345 342 341 340 339 338 336 336 336 336 338 336 337 337 336 335 335 334 334 333 333 334 331 330 330 329 330 328 330 331 331 330 331 332 332 330 331 331 330 331 331 331 332 335 334 333 340 338 340 344 345 336 335 332 333 333 332 332 331 331 332 332 333 334 335 335 336 336 337 337 337 337 337 337 337 337 338
334 335 338 343 342 341 344 343 341 340 337 336 337 338 336 336 334 335 335 335 335 334 334 334 333 335 334 334 333 333 332 332 327 325 325 329 328 327 327 327 328 330 332 328 330 331 331 331 330 334 337 333 332 330 333 337 339 341 337 333 331 330 332 332 331 333 333 332 333 335 334 333 334 334 335 335 335 336 336 336 336 336 336 336 336
335 337 337 341 343 344 344 341 341 339 337 335 336 335 335 333 332 333 332 332 333 332 332 333 334 333 332 332 331 331 330 329 328 328 326 327 326 328 328 328 329 329 328 329 328 326 329 327 327 327 328 330 331 332 333 335 335 335 332 331 331 332 332 333 335 333 333 334 337 337 336 334 334 334 334 333 334 334 335 335 335 335 335 335 335
336 334 338 341 344 345 344 341 340 338 336 334 334 333 333 330 331 330 330 331 331 330 330 332 332 332 330 329 330 329 328 326 328 327 326 326 325 324 326 328 327 328 330 328 326 327 327 327 326 326 326 330 330 332 334 334 334 332 330 330 331 333 335 335 337 335 335 334 338 338 336 335 334 333 333 333 333 333 333 333 333 333 334 333 333
336 336 338 340 343 346 344 341 337 336 335 335 334 332 331 331 330 328 328 328 329 330 328 329 331 330 328 328 326 325 325 325 325 325 323 325 324 323 323 326 327 326 328 327 327 328 326 325 325 327 326 326 328 330 330 331 332 331 330 330 332 333 335 333 332 333 334 334 338 339 338 335 335 334 333 332 332 332 333 333 333 332 331 331 332
334 336 337 337 340 344 345 341 336 334 334 333 332 329 330 330 330 329 328 327 328 328 328 328 329 329 328 328 326 325 323 323 325 324 322 323 322 324 325 323 324 324 327 327 326 325 325 325 327 326 324 326 325 328 329 329 330 333 330 331 335 335 333 330 332 332 332 334 337 338 338 338 336 334 333 333 332 333 333 332 331 332 332 331 331
333 335 334 335 338 343 343 339 335 333 333 331 329 328 329 329 328 327 327 328 329 329 328 329 327 326 327 327 327 326 324 325 324 323 323 323 323 323 322 322 324 324 326 324 326 326 325 324 325 325 325 325 325 328 328 329 331 331 329 329 331 332 330 330 329 328 329 331 333 336 337 337 337 335 333 333 333 333 332 332 332 332 331 331 331
334 333 331 332 334 339 337 335 334 333 333 331 330 328 327 326 327 328 329 329 327 329 329 326 325 325 325 327 326 325 325 323 323 321 320 321 321 323 324 324 323 324 324 325 325 324 324 324 324 324 323 323 324 326 327 328 327 329 328 328 327 327 329 327 326 327 328 330 332 335 335 336 336 336 336 335 335 334 334 334 333 332 332 332 332
334 330 330 331 332 332 332 333 332 334 332 329 328 328 328 327 328 328 327 328 327 328 327 326 325 326 327 329 327 327 326 325 324 322 320 318 320 321 321 323 322 323 324 324 326 325 324 323 324 324 325 323 323 325 325 327 327 326 328 326 326 327 325 326 324 324 325 327 329 333 333 333 333 333 333 333 334 335 334 334 333 333 332 332 332
331 330 330 331 331 331 331 331 333 332 330 328 328 327 328 327 329 327 326 328 328 326 323 325 325 326 327 328 328 328 328 326 326 323 321 318 318 318 319 322 322 323 324 324 324 325 324 323 324 325 326 326 324 324 326 326 326 325 324 324 325 324 323 323 322 322 323 324 326 329 331 330 329 329 328 328 329 329 330 332 332 333 333 333 333
330 330 330 331 331 331 331 332 332 330 328 326 326 328 328 327 327 327 327 327 327 326 325 326 327 328 329 329 330 329 329 327 326 324 321 317 318 318 317 319 321 323 325 325 324 325 324 323 325 325 324 325 324 324 323 326 325 324 324 324 324 323 322 322 322 322 321 322 323 324 327 329 328 326 325 325 325 325 326 326 327 327 329 330 330
329 330 331 330 331 331 332 331 330 328 328 328 328 326 328 327 326 325 327 326 325 324 326 328 328 327 329 330 329 328 327 326 324 323 320 318 318 316 316 316 319 323 323 324 321 322 322 322 321 322 321 323 322 323 322 323 323 323 323 322 322 323 322 320 321 320 320 321 321 323 322 323 324 326 323 321 321 321 322 323 323 323 323 324 326
329 328 328 329 331 330 330 328 328 327 328 326 325 327 327 326 325 325 326 326 326 325 326 327 326 328 329 328 329 328 327 326 325 323 319 317 315 314 314 314 320 321 319 321 321 322 323 323 322 321 322 321 320 320 320 322 321 322 322 323 321 319 320 319 319 319 318 319 320 319 321 320 321 321 321 319 317 317 317 319 319 319 319 320 321
329 329 329 330 328 329 330 327 328 328 328 326 326 327 326 326 326 325 326 326 324 326 325 327 327 327 328 329 329 328 327 326 324 321 319 316 313 312 313 318 319 318 319 319 320 320 322 323 324 322 319 317 319 320 321 319 320 319 321 321 320 320 318 317 317 316 316 318 318 318 318 317 318 317 317 318 317 314 314 314 315 316 316 316 316
330 329 328 329 327 329 328 327 327 326 326 325 325 326 326 324 325 325 323 325 325 325 326 328 328 329 328 327 328 328 326 325 324 321 319 316 313 313 313 317 318 317 318 318 317 320 321 321 323 323 321 318 317 316 318 319 318 318 318 318 318 320 319 318 316 315 314 315 316 315 316 315 316 314 316 315 316 316 313 311 312 313 312 313 313
330 330 329 328 326 327 327 327 327 326 326 324 326 325 326 325 324 324 326 325 326 326 327 327 328 327 328 327 327 327 326 325 322 320 318 315 314 313 315 316 317 318 317 316 318 321 322 322 322 323 320 319 316 316 315 315 314 314 315 315 317 316 316 317 317 316 314 312 314 313 314 314 314 313 314 314 314 314 314 311 309 310 310 310 311
329 329 328 327 326 326 327 327 327 326 325 325 327 326 326 325 324 325 325 325 327 328 326 326 327 329 327 327 327 327 326 324 321 318 318 314 313 314 316 316 317 317 318 316 317 320 322 321 320 321 322 320 317 317 315 315 312 311 310 312 314 314 315 314 315 315 314 313 312 311 311 314 313 311 313 312 311 312 311 311 308 309 309 308 308
329 328 327 327 326 326 326 327 326 325 324 325 325 322 321 321 320 322 321 322 324 325 327 327 329 328 328 327 327 327 324 322 319 318 317 316 314 314 316 316 316 316 316 316 316 318 321 320 318 317 317 317 317 316 316 315 313 312 312 311 311 310 310 311 310 310 312 312 312 312 310 310 312 311 309 309 310 309 310 309 309 306 308 307 306
328 327 326 326 325 324 325 325 325 325 322 320 321 321 320 319 320 320 320 323 324 326 326 329 328 327 327 326 326 324 323 321 318 316 316 314 314 314 315 315 315 316 315 315 317 318 320 321 319 318 316 315 314 316 314 315 312 310 312 310 310 309 309 308 307 308 307 308 309 308 308 309 308 309 310 309 308 308 308 308 308 308 307 307 306
327 326 326 326 325 324 324 325 325 323 321 322 321 322 321 320 320 320 320 322 322 322 324 327 327 327 328 328 327 325 322 321 319 317 316 313 314 312 313 315 315 315 315 315 316 317 318 318 318 316 316 315 314 315 315 318 312 310 309 308 308 308 309 308 305 305 306 305 307 306 307 304 305 308 309 308 308 306 305 307 308 307 306 306 306
326 326 327 326 325 324 324 326 324 324 321 323 322 323 323 324 323 321 321 322 326 327 326 327 327 325 327 326 326 324 321 318 317 314 313 314 315 314 313 314 316 315 314 314 314 314 316 316 317 314 312 313 313 314 317 318 315 314 316 311 309 309 308 306 305 304 304 304 305 303 303 303 303 305 307 307 307 307 306 306 306 306 306 305 305
326 326 325 325 325 325 325 324 325 325 324 322 323 325 326 326 326 326 327 325 325 327 328 328 326 326 325 326 325 323 321 319 316 313 312 315 315 314 314 314 315 315 313 312 313 311 314 314 315 316 316 311 311 313 314 317 316 316 310 310 312 309 308 308 307 304 304 302 302 302 302 301 302 303 306 304 305 306 307 306 306 306 306 305 305
325 326 326 325 323 324 325 324 323 325 324 323 324 326 326 325 325 326 327 326 326 326 325 324 325 325 326 325 323 322 321 318 318 315 313 313 315 315 313 314 314 315 314 312 311 311 310 311 313 314 316 312 310 311 312 314 314 315 312 311 310 310 306 305 307 304 306 302 301 301 302 301 301 301 302 302 304 304 304 305 306 306 305 304 305
325 326 326 325 325 324 324 325 324 325 325 325 325 324 323 322 322 321 320 320 320 322 321 322 323 323 321 325 323 321 320 319 317 315 313 313 314 314 314 312 314 313 313 312 312 309 309 309 311 312 311 314 311 308 307 311 311 311 312 310 309 304 305 304 301 305 306 304 303 301 301 301 301 300 301 301 302 303 303 303 304 303 304 305 304
327 327 327 326 324 324 325 324 325 325 326 325 325 324 323 323 323 321 321 321 319 322 326 325 324 323 325 324 323 323 320 319 318 316 315 314 315 314 314 313 313 313 313 313 310 308 306 308 311 311 311 313 313 309 309 308 309 309 307 307 307 306 304 306 304 303 304 304 303 301 300 300 302 301 299 300 302 303 303 302 302 301 303 304 303
328 327 327 327 326 325 325 323 324 325 326 326 324 324 323 323 323 322 322 321 321 323 325 326 327 327 325 324 324 322 321 320 318 317 316 314 315 313 314 313 311 311 310 310 310 309 308 309 312 312 311 312 313 310 309 308 306 304 308 306 305 304 304 304 302 302 299 301 304 303 302 301 303 302 301 300 301 303 302 302 301 301 302 302 302
328 327 328 327 327 326 325 325 325 325 325 325 323 322 324 323 323 322 321 323 324 325 325 326 326 327 326 325 324 323 322 320 319 318 316 314 314 313 312 311 311 310 309 309 309 309 310 311 310 310 310 309 311 311 309 308 308 307 308 306 305 303 302 302 303 302 299 299 300 298 299 302 306 304 303 301 300 301 303 303 302 301 303 302 302
329 330 329 327 327 326 326 324 325 325 326 325 323 322 323 324 322 323 322 322 324 325 326 325 325 327 325 325 324 322 321 320 319 318 317 315 315 314 310 309 311 309 308 309 310 310 310 309 310 310 310 309 309 310 308 308 308 307 306 307 306 306 304 302 301 301 300 299 297 296 298 297 297 301 303 299 301 299 302 302 302 300 300 302 302
330 330 329 326 327 326 327 324 324 324 326 325 324 323 323 323 322 322 324 323 323 324 324 325 325 326 325 325 324 323 322 321 320 320 317 316 316 315 313 310 312 312 311 309 310 308 309 309 308 308 308 308 308 308 309 308 307 306 304 304 302 302 302 299 300 301 300 299 299 298 299 297 297 297 300 300 301 300 301 301 300 300 300 301 301
Wind_Speed
5 4 10 7 5 7 7 7 9 8 9 9 7 5 6 6 6 5 8 8 9 9 9 9 10 10 10 8 6 7 6 5 5 4 4 4 4 4 5 7 6 7 8 9 9 7 8 5 5 8 9 8 10 11 11 10 10 10 10 9 9 10 9 8 8 8 8 8 8 8 9 9 10 10 11 8 5 5 4 3 3 5 3 6 3
6 7 8 7 7 9 7 7 9 9 9 9 8 7 6 8 6 6 9 9 9 9 9 9 10 10 10 9 7 7 6 6 6 6 5 4 5 5 5 6 7 6 7 7 7 6 4 6 6 7 7 10 10 11 10 10 10 10 9 9 9 10 9 8 8 7 7 7 7 9 12 9 9 5 4 3 3 5 4 4 3 7 4 8 3
8 10 6 7 11 9 7 8 9 9 9 8 8 6 7 8 9 9 9 9 9 10 10 10 10 10 10 9 9 8 8 8 8 7 7 7 6 7 8 7 6 5 6 6 6 5 6 6 6 8 8 8 10 10 9 9 9 9 9 9 9 9 9 8 8 8 8 8 6 6 12 5 5 5 3 6 7 10 11 10 11 14 9 5 2
7 9 6 8 9 9 9 8 8 6 6 8 7 9 9 9 9 10 10 10 10 10 10 10 11 11 10 10 10 10 10 9 9 8 8 8 7 7 7 6 4 5 6 5 5 6 6 6 7 7 8 9 10 10 10 9 9 9 9 9 9 9 9 9 8 9 9 7 2 0 5 5 4 10 7 5 6 7 9 9 9 11 7 6 5
8 7 7 6 8 9 8 7 7 7 6 6 8 9 9 9 9 10 10 10 10 10 10 10 11 11 10 9 9 9 9 9 8 8 8 8 7 7 6 6 6 6 5 5 5 6 6 7 7 7 8 8 9 10 9 8 8 9 9 10 11 10 9 9 9 7 5 0 2 8 7 4 5 7 4 5 4 5 6 7 6 7 8 6 7
7 6 5 5 6 8 8 8 7 7 5 7 8 8 9 10 10 10 10 10 10 10 10 10 10 10 9 9 9 9 9 9 8 9 9 9 8 7 7 6 6 6 5 5 5 5 6 6 6 7 7 8 9 9 9 8 8 9 9 10 10 10 10 9 7 4 2 4 9 4 7 4 6 5 5 4 4 5 6 6 7 7 8 8 6
7 6 5 5 5 7 6 9 9 7 6 7 9 10 10 10 10 10 10 10 10 10 10 10 10 10 10 9 9 8 8 9 9 9 9 9 8 7 7 7 7 7 6 6 5 5 5 6 6 7 7 8 9 9 8 8 9 9 9 9 10 9 9 7 5 2 3 8 3 7 4 5 5 5 6 3 3 5 6 6 6 7 7 8 8
6 5 5 5 5 7 7 7 8 7 7 6 7 10 9 9 9 9 10 10 10 10 10 10 10 9 9 10 9 9 8 9 9 9 9 9 8 8 8 7 7 7 7 6 6 5 5 6 6 6 6 7 8 8 7 8 8 8 9 9 9 9 8 6 4 6 3 5 5 6 5 6 7 5 6 5 3 5 5 5 5 5 7 7 7
7 6 5 6 7 9 8 8 9 9 11 11 10 8 8 8 8 10 10 10 10 10 10 10 10 9 9 9 9 8 9 9 10 9 9 9 8 8 8 8 7 7 7 6 6 6 6 6 6 6 6 7 7 7 7 7 8 8 9 9 9 8 6 5 4 5 6 7 6 6 6 6 5 6 6 5 4 5 3 1 5 6 8 9 8
7 6 5 5 7 9 9 10 9 9 11 11 10 9 9 10 11 11 11 10 10 10 10 10 9 9 9 9 9 9 9 9 10 9 9 9 9 9 8 8 7 7 6 6 6 6 6 6 6 6 6 6 7 6 7 7 8 8 9 9 8 6 4 4 7 6 7 7 8 8 6 4 7 5 7 6 6 6 7 10 9 9 8 9 8
7 6 6 6 8 9 10 9 9 9 11 11 11 10 11 11 10 10 10 10 10 10 10 10 10 10 10 10 10 10 9 9 9 9 9 9 10 10 10 9 8 7 7 6 6 7 6 6 6 6 6 6 6 6 6 7 8 8 9 8 7 4 1 4 4 7 8 9 8 6 7 5 5 5 7 7 7 7 7 8 8 8 7 8 9
7 7 6 6 9 9 9 9 9 10 11 11 11 10 10 11 10 10 10 10 9 9 10 10 10 10 10 10 9 9 9 9 10 10 10 11 11 11 11 10 10 9 8 7 6 5 5 5 5 5 5 5 6 5 6 7 8 8 9 8 6 5 4 2 4 10 10 5 6 7 7 6 6 6 6 6 6 6 6 6 8 7 6 7 7
7 6 7 5 7 11 9 10 12 12 12 12 10 10 10 10 10 10 10 10 9 9 10 10 10 10 10 9 9 9 10 10 11 11 12 12 12 12 11 11 10 10 9 9 9 7 5 4 4 4 4 4 5 5 5 6 8 9 9 8 6 4 5 5 5 12 6 4 6 6 6 6 6 6 7 6 5 6 5 6 7 7 6 5 7
7 7 8 6 7 11 12 11 10 12 13 12 11 11 10 9 8 9 9 10 10 9 9 9 9 9 9 9 9 10 10 11 12 12 12 12 12 12 12 11 10 10 10 10 10 9 8 6 4 3 2 3 3 4 5 7 8 8 8 8 4 1 3 5 5 10 9 4 6 7 7 6 6 6 7 6 5 5 6 6 6 7 7 7 7
7 7 8 8 7 7 11 11 12 13 12 11 11 10 9 10 9 9 10 9 8 7 9 9 8 8 8 9 10 10 11 12 12 13 13 13 12 12 12 11 10 10 10 10 10 9 8 7 6 4 2 3 3 4 6 7 8 8 9 7 5 4 6 1 4 9 9 5 5 6 8 7 7 7 7 7 6 6 6 5 6 6 6 6 7
7 8 7 7 8 7 7 8 11 12 12 11 11 10 9 9 9 8 8 7 7 7 9 9 9 9 10 10 10 11 11 12 12 12 12 12 12 12 12 11 11 11 10 11 10 10 9 8 7 7 5 3 4 4 6 7 8 8 8 7 5 4 5 8 6 7 10 4 5 4 9 8 8 8 7 7 7 6 6 7 7 8 7 7 7
7 7 8 8 8 7 7 7 9 11 11 11 10 9 9 7 5 4 4 6 9 10 10 10 10 11 11 11 11 11 12 12 13 12 12 11 12 12 12 12 12 11 11 12 12 11 10 9 8 8 8 7 6 6 7 8 8 9 8 8 5 4 7 6 7 8 9 8 6 8 7 8 9 8 9 8 7 7 7 8 8 8 8 8 7
6 6 7 7 7 7 6 7 7 7 8 10 10 8 8 8 8 7 9 10 10 11 10 10 10 10 10 10 10 11 11 12 12 12 12 11 11 12 12 12 12 12 12 12 12 11 11 10 9 9 9 8 8 8 9 8 10 8 9 8 7 4 4 6 8 8 9 10 11 9 10 10 11 10 11 11 10 9 9 9 9 9 9 8 8
6 6 6 6 6 7 6 6 6 6 7 7 7 8 8 8 10 10 10 10 11 11 10 10 10 10 10 9 10 10 10 10 11 12 12 12 11 11 12 12 11 11 11 11 12 11 11 11 10 9 9 8 8 8 10 10 10 9 9 9 7 2 2 7 9 9 9 10 10 9 9 13 11 11 12 12 12 11 11 10 10 9 10 10 9
5 6 6 5 5 5 5 5 5 5 6 6 7 8 9 10 10 10 10 10 10 10 10 10 10 10 10 9 7 6 7 8 8 8 11 12 12 11 12 11 11 11 11 11 11 11 10 10 10 9 8 8 7 9 11 12 10 8 8 8 5 4 7 7 9 9 9 10 10 10 12 13 13 13 13 13 12 13 12 12 11 11 11 11 10
4 5 5 5 4 5 5 5 6 6 7 7 6 7 7 9 9 10 10 9 9 9 8 8 8 7 6 6 4 5 6 6 6 7 8 9 11 11 11 11 11 10 10 10 10 10 10 9 9 8 6 5 10 10 12 11 10 9 7 6 6 7 8 7 7 8 9 9 11 11 15 15 15 15 16 16 16 16 16 15 15 14 15 15 14
5 5 5 5 4 5 5 6 6 7 7 5 5 5 6 5 7 6 6 6 6 6 5 5 4 5 6 4 5 5 5 6 6 6 6 8 9 10 10 10 10 9 8 9 9 9 9 9 7 6 3 1 7 9 6 8 10 8 6 7 5 7 8 6 7 9 10 10 11 12 15 15 14 14 14 15 16 16 17 17 17 17 17 17 17
5 6 6 5 4 5 5 6 7 7 7 6 5 5 6 5 6 6 5 5 5 4 4 3 4 5 6 5 5 5 6 6 6 6 5 7 8 8 8 8 8 8 5 5 6 5 5 6 6 4 4 8 6 5 7 6 7 7 8 4 5 6 7 7 9 10 11 11 11 15 16 16 15 15 14 15 16 15 16 17 17 17 17 18 18
5 5 7 4 5 6 7 7 8 7 5 5 5 5 5 4 4 4 4 3 3 3 4 4 5 5 5 4 4 4 4 4 5 5 4 4 5 5 5 4 4 6 8 2 5 6 4 7 3 6 6 1 3 2 4 4 4 3 4 5 4 5 6 8 9 9 10 11 12 16 15 16 16 15 15 15 15 16 16 16 17 17 17 17 18
4 6 5 7 6 6 6 7 6 5 5 4 4 4 4 4 4 3 3 2 2 2 3 4 5 4 5 4 5 5 5 5 5 5 5 5 5 5 4 5 5 5 5 5 5 5 4 4 3 0 3 2 3 2 3 3 3 3 3 4 5 7 7 9 8 9 10 11 12 16 16 15 15 15 15 16 16 16 16 17 16 17 17 17 17
5 5 7 7 6 6 6 6 6 5 4 4 5 4 3 4 3 3 2 2 3 3 3 3 4 4 4 5 4 5 4 5 6 6 5 4 5 4 4 4 5 5 5 5 5 5 4 4 4 4 3 3 3 3 3 3 2 2 3 5 6 6 6 8 7 9 9 10 12 16 15 15 14 14 15 15 15 16 15 15 15 15 15 15 15
5 6 6 6 6 5 6 7 6 5 5 4 3 4 4 3 3 4 3 3 2 3 4 5 5 5 5 5 4 4 5 5 6 6 6 5 5 4 4 4 4 4 5 4 5 4 4 4 4 4 3 3 3 3 2 2 2 3 4 6 6 6 6 7 8 7 9 10 13 18 16 14 14 14 12 12 14 14 14 13 14 14 15 15 16
5 7 6 6 6 7 7 7 6 5 5 4 4 3 4 3 3 2 3 3 3 5 5 5 5 5 5 5 4 5 5 6 6 6 6 6 5 5 4 4 4 4 4 4 4 4 4 4 4 4 4 4 4 3 3 2 3 2 5 6 5 5 5 6 7 7 9 9 11 16 17 17 16 14 14 15 15 15 15 14 14 15 14 15 14
7 7 7 6 7 6 7 7 6 6 4 3 4 3 3 3 4 4 5 4 5 5 5 5 5 6 6 6 6 6 6 6 7 6 6 6 5 5 5 5 5 4 4 4 4 3 4 3 3 4 3 3 4 4 3 3 3 3 4 7 5 5 5 6 6 7 8 9 9 13 18 19 18 16 15 15 15 15 14 15 15 14 12 12 15
7 7 8 8 7 7 8 7 6 5 4 3 3 3 3 3 5 5 5 5 5 5 5 5 5 6 6 7 7 7 6 7 7 7 6 6 6 5 5 5 5 4 4 4 4 4 4 3 3 4 4 4 5 4 3 4 5 4 5 6 6 6 6 6 6 7 8 8 9 11 19 19 20 20 20 19 18 17 17 16 16 15 15 16 16
8 8 7 7 7 7 7 7 6 5 4 4 4 4 4 4 4 4 5 5 6 6 5 5 6 6 6 6 7 7 7 7 7 7 6 6 6 5 5 5 5 5 4 4 3 3 3 4 4 4 4 5 5 4 4 5 5 6 5 6 6 5 6 6 6 7 7 7 8 9 14 19 19 21 21 21 20 20 19 18 18 18 17 16 15
9 9 7 7 7 8 7 7 6 6 5 5 4 4 4 4 4 5 6 6 6 5 6 6 6 6 6 6 6 6 6 7 7 7 7 7 6 6 5 5 5 4 4 4 4 3 4 4 5 4 4 4 4 4 4 5 5 6 6 6 5 5 6 6 6 7 7 7 7 7 8 12 19 20 20 21 20 20 20 20 20 20 20 19 19
7 8 8 8 8 8 7 7 6 6 5 5 4 3 4 5 5 6 6 6 6 5 6 6 6 6 5 6 6 6 6 6 6 7 7 6 6 6 5 5 5 4 4 4 4 2 2 2 4 3 3 4 4 5 5 5 6 6 6 6 6 6 6 6 6 6 7 7 6 6 6 7 10 17 20 20 20 20 19 20 20 19 19 19 18
8 7 9 9 7 6 5 5 6 6 5 4 3 4 4 5 6 6 7 6 6 7 6 6 6 5 6 6 6 7 6 6 7 7 6 6 6 6 6 5 5 4 4 3 3 3 3 3 3 3 3 3 5 5 5 6 6 6 6 6 6 6 6 6 6 6 6 7 6 6 6 5 5 6 10 18 19 19 19 19 19 19 19 19 18
8 9 10 9 8 7 6 5 6 6 6 5 5 6 6 6 6 6 6 6 7 7 6 6 6 6 6 6 6 6 7 7 7 6 6 6 6 6 6 6 5 4 4 4 3 3 3 3 3 3 3 4 5 6 6 6 6 7 6 5 6 6 6 6 6 6 7 7 6 7 6 6 6 5 5 6 13 17 17 18 18 19 19 18 18
10 10 9 9 9 8 7 7 7 6 6 5 5 7 7 6 6 7 7 7 7 7 7 6 6 6 5 5 6 6 7 7 7 7 6 6 6 6 6 5 5 4 4 4 4 3 4 3 3 3 3 5 5 6 6 6 7 7 6 6 6 6 6 6 6 7 7 6 6 6 6 6 6 6 5 5 5 10 15 15 16 17 17 17 17
9 10 10 9 9 9 8 8 7 7 7 7 8 8 7 7 7 8 8 7 7 7 7 6 6 6 6 6 6 6 6 7 7 7 6 6 6 6 5 5 4 5 4 4 4 4 3 3 4 4 4 5 6 7 7 6 7 7 7 7 7 6 6 5 6 6 6 6 6 6 6 6 6 5 5 5 5 4 9 10 11 15 16 16 15
10 10 10 9 9 9 8 7 7 7 7 7 8 8 7 8 8 7 7 7 7 7 6 6 6 6 6 6 5 5 6 6 7 6 6 6 6 6 6 5 5 4 4 4 5 4 4 3 4 4 4 4 5 6 7 6 6 7 7 8 7 6 6 6 5 5 5 6 5 5 5 5 5 6 5 5 5 5 5 5 5 9 14 14 14
9 10 10 9 9 8 7 8 7 7 7 8 8 8 8 8 8 8 8 7 7 6 6 7 6 6 5 6 6 5 5 6 7 7 6 6 6 6 6 6 5 5 5 5 5 5 5 4 5 5 4 5 5 5 6 5 6 6 7 7 6 7 5 5 4 5 5 6 5 4 4 5 4 5 5 4 4 5 5 6 6 6 6 11 11
9 9 10 10 9 9 8 7 7 7 7 8 8 8 8 8 8 7 7 7 7 7 6 6 6 6 5 6 6 5 6 6 7 7 7 6 6 6 6 6 5 5 6 6 5 5 5 5 5 6 6 6 5 6 6 6 7 7 7 6 6 6 6 5 5 5 5 5 4 4 4 4 4 4 5 5 4 5 5 5 5 6 6 7 10
10 10 11 10 11 9 9 8 7 7 7 8 7 7 7 8 7 7 7 7 7 6 6 5 5 5 6 6 5 5 6 6 7 7 6 6 6 6 6 6 6 6 6 6 6 6 4 4 4 4 5 5 5 5 5 4 6 6 5 6 5 5 6 5 6 5 5 4 4 4 3 3 3 4 4 4 4 4 5 6 6 6 6 5 5
10 11 10 10 9 10 10 8 7 7 7 7 7 7 7 7 7 7 7 8 7 7 6 5 4 5 5 5 4 5 5 6 6 6 7 7 6 6 6 6 5 6 6 7 7 6 5 3 3 4 3 4 4 4 3 4 4 3 4 4 5 4 4 4 4 5 4 4 3 3 3 4 4 3 3 3 4 4 5 5 5 5 6 6 6
12 11 10 10 9 9 9 8 7 7 7 7 7 7 6 7 7 6 6 6 5 5 6 5 4 5 4 4 5 5 5 6 6 6 6 6 6 6 6 6 6 5 5 6 7 7 5 4 2 2 4 3 4 3 4 6 3 2 0 4 4 4 4 4 4 5 4 4 3 4 3 4 4 3 3 3 3 4 4 4 4 6 6 6 6
11 11 10 11 8 8 8 8 7 7 7 7 7 8 7 6 6 6 5 6 6 4 4 4 5 4 5 4 5 4 5 6 7 7 6 6 6 6 5 6 6 6 6 6 6 7 6 4 3 2 0 2 2 3 5 5 6 4 3 2 2 4 4 5 3 3 3 4 3 4 3 3 3 3 2 3 3 3 3 4 5 5 6 6 6
11 11 11 10 7 9 9 9 8 7 7 8 7 7 8 8 7 7 6 5 4 5 5 5 4 3 3 3 4 4 5 5 5 6 6 6 5 5 6 6 6 6 5 6 6 6 6 6 5 4 4 2 3 3 4 5 5 5 5 4 3 4 4 3 3 3 1 2 3 3 3 3 4 3 3 4 3 4 4 3 4 4 6 6 6
12 11 11 11 9 9 9 9 8 8 7 9 9 8 7 7 7 7 7 6 6 5 5 4 4 3 4 4 4 4 4 4 5 6 6 5 5 6 5 6 6 5 5 5 5 5 6 6 5 4 5 5 3 3 5 5 5 6 6 4 4 5 5 4 5 2 3 1 1 2 3 3 4 4 3 4 4 4 4 4 4 4 5 5 5
11 11 11 11 10 9 9 9 8 8 8 9 10 7 7 7 8 8 7 7 6 5 3 3 3 3 3 3 4 3 4 4 4 5 5 5 5 5 5 5 6 6 5 6 6 6 7 7 6 6 5 4 3 4 3 4 4 5 5 5 5 4 4 4 3 3 3 4 1 2 3 3 3 5 4 3 5 3 3 5 5 5 4 5 5
11 11 11 11 11 10 9 10 9 9 8 8 10 8 7 8 8 8 7 7 6 5 4 3 3 3 3 3 3 3 3 3 3 4 4 5 4 5 5 5 5 5 5 6 6 6 6 6 7 6 6 5 5 4 4 4 4 4 5 4 4 4 5 5 4 5 4 4 3 3 2 4 2 4 5 4 3 3 3 4 5 5 4 5 5
12 11 11 11 11 11 10 10 10 9 9 9 9 9 7 8 8 7 7 6 5 5 4 4 4 3 3 2 2 3 3 3 3 3 4 4 4 4 5 5 4 5 5 6 6 7 7 7 6 6 6 6 5 5 4 5 4 4 3 4 4 3 4 4 4 4 4 4 0 2 3 2 2 2 4 3 3 3 2 2 3 4 5 4 5
11 11 12 11 11 10 10 11 11 9 9 10 9 9 9 8 9 8 9 7 6 5 4 4 4 4 4 3 3 2 3 3 2 3 4 4 3 3 4 5 5 5 6 7 7 7 6 7 6 6 6 6 5 6 6 5 5 5 5 4 4 3 3 4 5 5 2 4 4 4 4 5 4 2 0 4 3 3 2 2 3 4 5 5 6
11 12 12 12 11 11 11 11 11 10 10 10 10 10 9 9 9 9 9 8 7 6 5 5 4 4 3 4 3 3 2 3 2 2 3 4 3 3 3 4 5 4 4 5 5 6 6 6 6 7 7 6 5 6 6 5 5 5 6 5 5 5 5 5 5 5 5 5 5 4 3 5 4 3 2 4 3 2 2 2 4 4 5 5 6
Wind_Direction
38 60 81 78 68 56 59 71 65 72 77 84 71 82 85 61 44 67 77 75 71 74 76 73 69 75 90 96 92 86 68 51 54 51 36 33 32 38 30 27 44 39 40 41 35 37 47 36 43 30 35 39 55 54 48 49 49 51 49 47 40 36 35 37 38 39 38 40 50 51 57 54 50 52 43 45 82 130 147 164 223 215 167 121 105
124 84 81 80 78 69 59 50 57 69 73 80 84 90 97 94 99 82 81 76 75 71 73 72 73 75 79 85 81 77 84 74 64 59 54 41 46 38 42 33 27 44 39 48 33 31 39 52 42 55 49 42 48 55 53 48 48 48 45 44 38 36 36 39 42 42 45 51 54 65 55 37 54 83 113 113 41 32 71 43 5 302 93 58 45
54 78 87 94 90 79 70 70 74 81 82 98 115 112 115 115 94 84 81 76 73 73 72 71 70 74 75 72 73 72 65 69 63 55 53 51 50 55 57 33 28 24 61 64 58 44 44 48 43 54 60 64 54 56 53 49 50 49 49 45 39 38 42 45 50 51 58 58 65 101 107 103 118 89 98 60 22 12 23 32 19 347 62 37 50
90 87 93 89 95 81 74 73 73 69 72 92 98 101 83 77 82 82 79 76 71 69 69 69 70 69 71 77 78 70 68 63 63 61 58 57 55 53 63 83 63 50 58 66 63 53 49 47 50 51 50 54 55 55 52 49 48 47 47 42 42 47 50 51 57 63 62 51 40 19 93 230 91 58 50 62 46 22 25 32 25 30 37 65 50
77 75 86 96 94 80 78 64 69 67 76 72 76 77 78 77 75 74 75 74 71 70 69 69 70 69 69 65 72 75 77 73 70 66 62 61 61 57 58 52 58 64 61 65 56 56 55 55 56 56 58 58 62 60 56 52 53 49 46 48 50 51 54 55 60 70 62 160 218 215 128 107 78 85 67 71 67 44 27 22 29 34 28 41 41
85 82 74 78 81 88 68 89 79 63 36 79 78 74 77 71 68 70 71 73 73 73 73 73 71 72 73 72 64 72 72 71 68 64 61 56 54 53 56 56 57 57 59 62 63 63 62 61 63 65 64 65 64 62 62 57 56 52 53 59 54 53 58 60 58 72 173 215 234 86 61 89 96 98 81 64 67 58 46 21 15 16 23 4 20
80 81 73 72 93 79 82 92 85 65 37 22 63 72 70 72 70 70 71 73 76 76 74 74 74 72 69 67 72 70 69 70 68 66 62 58 54 54 55 55 53 51 54 58 63 67 71 67 64 65 65 64 61 62 59 54 54 56 58 63 57 59 67 76 86 105 245 226 70 90 120 98 93 85 80 81 70 59 60 41 18 16 16 3 350
82 82 81 82 75 89 75 73 91 110 121 84 69 67 68 70 75 80 79 77 77 78 80 78 76 74 73 74 72 70 71 71 69 67 65 61 57 53 54 56 52 53 57 62 65 72 70 63 67 68 68 68 68 69 65 60 60 62 63 65 60 64 70 89 99 75 58 66 72 65 92 98 96 87 85 96 88 66 72 63 46 42 35 27 28
95 89 87 95 91 77 81 75 73 81 87 85 78 77 76 85 83 77 75 75 77 78 77 77 74 75 75 77 78 75 72 69 67 65 62 59 54 48 46 45 48 49 51 57 62 63 65 65 66 69 70 70 72 73 69 68 68 65 65 66 65 69 82 82 105 136 78 67 63 77 78 85 85 88 84 101 95 80 86 160 148 72 48 42 34
93 90 83 78 79 74 62 64 60 63 81 85 87 75 73 69 64 66 68 73 74 74 75 74 76 78 78 77 74 73 70 68 62 58 53 50 46 44 44 43 40 39 45 52 57 60 61 63 67 68 69 71 75 74 72 72 68 67 67 70 67 76 101 132 126 67 84 79 80 67 55 19 94 76 83 93 77 66 65 52 57 40 40 37 44
96 95 97 83 77 70 65 65 57 71 80 82 77 76 74 67 62 68 72 73 74 76 79 79 76 73 73 72 71 70 67 62 57 52 51 48 46 48 48 47 41 38 35 38 45 48 52 56 61 68 72 74 72 72 71 71 70 68 68 72 68 65 34 232 188 86 68 65 69 86 91 80 68 78 87 76 75 67 59 58 57 62 50 38 36
101 102 98 90 91 76 69 56 50 79 86 84 84 81 75 72 73 78 73 72 74 75 75 75 73 72 71 72 71 67 63 56 54 53 51 48 49 48 48 49 48 45 44 45 47 47 46 50 54 63 71 76 78 78 79 77 76 75 73 71 70 40 340 318 73 79 56 30 53 60 71 65 71 88 92 87 83 79 63 62 56 56 45 41 37
93 99 91 82 89 85 75 68 73 77 83 87 88 89 87 85 83 82 78 73 74 73 74 74 73 74 73 72 69 64 58 58 57 54 51 49 49 49 50 51 50 48 46 45 45 45 44 44 54 67 75 80 87 91 87 84 79 75 73 78 76 57 26 316 81 78 67 63 64 64 71 68 72 74 69 74 70 73 61 51 59 57 47 48 37
100 97 95 80 79 88 84 87 87 84 80 81 82 81 84 86 78 73 72 69 56 70 74 73 73 72 74 73 68 62 61 59 55 53 50 48 46 46 47 47 48 47 45 44 44 45 47 48 55 74 90 88 92 94 91 86 80 76 78 81 82 238 21 63 53 91 93 64 78 64 65 62 65 65 75 74 74 66 54 53 51 50 45 46 45
100 93 99 113 97 76 87 94 93 85 86 85 85 87 86 84 72 64 65 65 71 60 74 71 75 77 80 78 71 67 62 59 56 53 51 47 44 43 43 42 42 43 43 44 46 47 50 56 59 65 92 113 108 85 78 82 81 77 85 83 70 30 330 71 63 86 95 92 72 70 72 69 69 65 64 74 61 52 51 55 48 49 42 47 49
90 96 99 98 107 110 75 73 78 86 88 87 88 86 83 85 90 95 93 95 87 77 75 77 77 82 84 82 77 70 66 64 60 56 53 49 45 42 41 39 37 36 37 39 43 46 48 54 59 64 77 110 118 105 91 83 88 88 87 89 70 13 2 309 73 64 95 79 32 89 69 67 60 64 66 63 62 55 48 44 48 49 51 46 42
93 94 94 96 98 102 114 94 88 95 92 90 90 92 96 96 102 101 128 118 93 79 82 81 78 79 82 79 73 69 67 64 60 57 53 51 47 43 42 39 35 34 33 34 37 41 44 48 51 57 65 76 102 120 111 107 102 95 92 87 79 34 342 8 67 66 67 93 130 69 66 59 57 59 62 67 66 56 56 53 54 54 50 52 51
90 92 93 100 101 105 112 123 128 115 110 104 102 104 99 91 96 110 99 92 89 87 86 85 84 83 81 79 75 71 66 63 59 57 51 47 49 45 42 40 37 35 33 33 36 38 41 46 50 53 58 63 77 108 122 116 105 102 99 94 91 61 350 53 71 70 70 72 61 53 58 62 58 57 58 59 61 64 58 56 58 56 53 55 54
105 98 102 103 111 113 115 115 113 118 114 106 106 98 90 89 85 77 81 88 89 90 86 85 86 83 82 78 78 73 67 61 64 55 52 47 39 48 40 41 39 36 36 36 37 37 38 41 48 53 58 65 73 104 121 117 112 111 110 110 111 133 84 75 67 61 62 62 67 59 58 57 57 55 57 56 53 52 53 57 57 58 53 50 45
107 106 106 101 110 113 113 107 107 105 102 99 101 96 91 93 94 97 97 91 90 90 88 85 82 82 77 75 76 83 73 64 46 62 53 50 47 41 42 41 39 38 37 39 39 38 38 39 43 52 59 70 79 108 122 119 120 120 119 130 158 152 80 66 65 64 65 61 62 64 60 59 56 55 54 56 62 55 52 53 51 58 56 52 53
118 104 97 101 101 107 103 106 109 112 109 106 103 104 111 117 104 94 88 87 89 89 96 103 98 83 84 84 84 50 56 47 43 39 46 54 45 45 42 42 39 37 38 40 42 41 40 37 38 45 54 74 88 94 115 121 125 127 145 164 154 85 73 71 67 64 64 65 69 65 60 59 58 59 57 59 59 58 57 56 56 53 53 51 45
131 121 108 120 122 109 109 112 113 105 108 108 99 105 108 99 98 103 99 107 104 109 100 87 93 103 105 72 50 50 47 53 42 41 46 40 54 44 43 41 40 36 37 40 43 42 41 35 30 28 32 82 176 110 107 122 126 148 170 202 107 92 82 77 77 77 72 70 69 66 64 63 62 62 63 64 61 61 63 62 60 59 58 57 56
141 137 124 132 125 119 119 110 106 109 108 107 112 105 100 96 91 93 100 90 95 92 90 81 67 62 52 57 55 55 53 55 52 46 44 68 58 44 42 44 42 33 27 52 46 39 50 46 23 357 308 232 214 111 147 149 128 166 205 174 85 78 81 85 80 72 72 74 76 69 67 65 63 62 64 67 70 66 66 66 63 60 57 55 53
141 127 131 138 140 124 118 117 119 123 118 104 104 93 84 86 82 86 87 92 86 80 66 53 61 54 63 56 54 54 56 71 71 54 47 27 66 73 59 65 72 52 354 80 130 61 227 149 94 294 226 50 40 125 112 109 127 138 101 112 103 91 81 72 72 72 78 74 71 63 64 68 67 67 66 66 67 68 68 67 65 63 60 57 54
139 128 140 134 137 130 124 118 120 114 115 106 97 84 82 77 78 76 72 56 54 62 70 79 66 68 68 58 57 42 40 40 33 35 26 29 25 25 37 36 35 43 11 46 26 41 29 29 101 118 54 69 74 62 69 100 114 103 105 87 87 73 76 73 86 95 87 80 72 66 62 64 68 68 67 65 63 64 66 66 65 63 61 58 55
159 160 129 129 136 138 130 124 123 119 101 91 81 97 86 70 71 65 56 54 58 55 72 78 80 57 49 59 54 58 46 48 41 29 30 31 25 30 29 34 39 41 21 39 35 21 32 43 44 42 53 67 76 67 75 103 96 104 103 99 92 87 86 103 94 85 85 81 71 63 64 61 63 68 69 67 67 67 65 62 61 58 59 59 59
203 128 134 128 128 136 134 131 123 113 97 89 88 71 64 61 49 33 2 61 75 91 89 80 69 59 47 37 49 56 53 48 43 38 29 25 28 22 30 34 29 39 27 32 39 39 30 39 44 52 56 71 54 80 110 63 69 103 108 88 92 109 116 102 91 87 89 85 70 59 56 61 63 55 55 69 72 68 62 60 57 51 47 50 50
160 123 137 138 141 143 138 132 122 116 112 107 89 76 69 69 63 90 62 57 89 95 83 76 84 69 57 61 45 50 47 45 43 38 32 28 27 25 21 30 28 36 34 23 32 35 45 46 47 46 50 54 66 60 69 71 86 87 102 103 92 102 93 90 91 91 87 82 76 59 56 54 56 59 58 64 65 56 50 48 50 52 51 51 50
132 148 129 133 136 141 143 127 124 115 106 81 78 61 64 45 43 62 75 81 85 78 79 91 79 76 61 55 52 44 47 42 29 32 32 28 29 29 27 33 27 30 30 36 27 30 44 42 50 61 52 68 79 76 73 70 81 101 95 101 109 101 97 101 102 96 90 85 78 66 63 60 56 56 61 65 64 60 57 54 52 52 52 49 46
140 143 139 139 135 141 131 125 125 117 112 93 69 64 53 59 65 72 96 101 87 90 98 79 70 70 68 55 46 47 41 33 33 25 30 30 30 33 38 39 39 30 29 37 22 26 24 40 50 53 62 65 71 71 77 89 79 80 92 112 115 105 103 100 97 98 100 96 88 78 69 63 59 56 56 57 59 59 56 55 53 50 45 48 49
146 150 141 128 128 128 124 127 116 112 104 93 81 73 57 61 89 99 92 93 102 100 87 82 78 73 66 52 53 46 40 37 29 27 29 29 33 35 33 35 40 36 24 32 32 21 27 41 45 40 57 59 63 60 64 82 85 86 93 101 96 94 95 95 96 93 94 94 98 91 75 67 61 57 55 55 54 55 56 56 57 55 53 51 52
152 149 136 129 127 123 123 114 116 107 103 100 101 83 83 99 102 99 98 94 100 97 89 82 79 70 63 60 52 47 41 42 26 24 30 33 33 30 38 33 35 33 31 18 26 14 40 40 52 72 61 65 74 68 63 69 78 78 71 69 79 91 83 76 79 79 81 89 94 93 92 84 65 59 56 54 53 52 51 51 50 49 49 49 48
144 138 130 133 132 126 123 123 117 114 108 96 85 94 103 111 106 110 107 107 94 85 86 85 82 80 68 59 53 48 35 35 35 21 25 38 36 31 33 31 34 28 29 19 14 13 39 85 85 72 78 81 78 77 74 77 75 75 83 82 82 75 76 76 71 74 79 77 79 81 83 87 92 72 58 53 52 50 50 50 48 47 46 45 43
142 135 135 138 133 127 123 122 119 113 104 98 96 96 101 105 109 113 111 105 97 96 91 87 84 80 71 54 48 41 40 33 25 29 21 37 39 36 30 31 30 19 37 10 28 21 40 44 66 79 86 92 89 89 91 87 86 82 73 71 70 70 78 79 79 76 70 71 67 66 69 68 67 80 80 62 52 50 49 49 47 46 43 42 40
137 139 141 138 136 129 127 122 127 121 123 113 112 121 127 116 116 110 107 109 105 97 96 92 83 73 71 64 46 45 37 33 30 25 26 30 38 39 30 33 23 21 30 29 9 44 49 37 33 79 75 76 81 75 77 80 83 78 72 72 72 71 69 76 78 78 79 74 67 67 64 65 58 49 66 85 67 51 49 48 47 44 42 38 36
144 141 134 137 136 135 135 131 136 125 112 113 114 119 122 112 107 117 115 111 106 101 91 83 82 84 74 65 50 43 39 33 32 27 29 32 38 40 39 33 22 39 33 27 23 44 50 50 45 60 98 90 95 90 81 81 78 79 77 73 71 74 78 77 74 75 75 75 72 70 69 63 57 57 44 56 70 66 49 49 48 45 41 37 34
144 143 141 141 139 134 140 139 135 130 125 119 126 126 123 120 122 114 114 112 108 105 97 91 78 65 57 59 54 44 39 36 30 31 31 35 40 43 43 38 39 43 42 29 40 42 54 65 59 52 82 102 100 99 94 94 93 84 79 75 76 69 68 62 71 79 80 79 87 83 75 68 74 73 57 49 41 52 71 50 54 52 43 37 33
144 142 143 145 142 144 144 138 134 132 131 129 133 136 124 125 125 116 109 108 99 91 86 83 75 68 63 61 54 51 43 37 31 32 37 39 43 43 46 37 46 47 48 48 45 46 52 63 72 53 69 97 97 98 100 98 96 91 84 77 70 73 75 74 70 64 68 77 72 72 69 68 62 52 50 48 45 35 23 55 53 82 56 37 33
149 147 148 148 147 147 139 139 138 133 135 137 137 130 134 122 118 125 121 118 111 99 94 87 78 76 72 67 51 46 44 37 39 37 35 39 44 44 42 39 48 48 43 49 63 57 58 62 77 81 59 62 73 72 80 81 81 82 86 84 88 84 79 80 85 77 69 61 58 59 68 56 50 55 47 40 43 39 32 17 18 8 55 49 34
150 150 151 152 150 144 142 140 141 140 138 145 149 143 139 140 129 129 122 111 108 102 94 88 84 78 74 60 57 50 45 41 42 44 44 39 42 43 42 42 50 58 49 46 48 60 61 74 79 91 99 99 95 101 100 98 95 87 81 76 69 73 76 77 75 74 77 65 59 42 45 58 52 43 40 43 37 43 35 33 20 21 13 34 32
155 156 160 160 154 153 150 149 145 149 150 156 156 151 145 134 136 127 127 125 108 108 97 85 76 65 54 57 56 54 52 44 38 41 42 48 49 46 44 44 49 54 57 52 51 60 63 68 79 80 93 98 94 89 81 106 106 98 92 90 85 74 78 74 73 75 68 72 61 52 48 57 57 51 48 44 40 38 47 31 28 20 14 3 11
164 165 168 160 157 157 153 149 150 156 153 156 149 151 149 141 143 141 133 130 131 119 109 105 91 85 71 63 54 56 62 58 51 47 42 47 49 52 49 48 53 60 61 60 59 64 67 74 93 103 83 91 81 47 46 304 193 120 147 130 116 101 78 75 84 79 84 75 77 83 75 46 38 57 38 42 38 28 37 28 33 22 12 2 5
168 174 169 164 163 163 156 155 154 159 154 152 157 156 149 144 145 135 131 114 78 84 92 84 89 86 79 73 61 48 46 58 55 50 57 51 53 54 55 52 49 56 65 63 60 57 57 66 60 90 124 106 100 57 15 340 338 157 313 220 164 176 143 115 85 76 69 72 75 64 52 55 45 27 38 43 33 31 28 32 23 24 12 3 3
174 178 171 169 168 166 165 161 160 160 153 157 160 150 148 144 130 138 126 134 123 115 113 114 107 109 90 63 64 60 48 49 48 55 55 55 56 61 63 59 57 52 54 58 54 57 53 57 66 80 64 146 94 61 22 12 350 329 234 292 29 308 185 146 125 98 86 79 59 64 43 49 50 38 43 34 49 32 24 28 16 23 12 6 360
180 178 176 175 174 169 170 166 166 163 162 161 158 152 150 154 145 143 138 131 147 147 143 120 105 107 114 96 77 63 62 61 57 54 60 59 57 62 68 72 67 58 58 62 58 52 60 62 53 55 35 36 99 78 53 36 33 8 334 313 245 206 34 78 153 120 195 107 77 70 62 30 37 32 28 38 24 43 16 25 12 19 13 360 1
185 182 180 178 175 174 169 170 167 168 166 167 164 165 166 162 161 158 158 160 146 156 142 137 140 114 80 87 77 69 67 65 68 59 55 58 62 62 63 72 76 72 64 59 57 58 54 62 52 50 75 48 65 98 86 62 53 48 48 43 2 355 351 6 296 124 155 72 129 79 64 52 36 24 27 32 17 24 15 350 15 12 12 359 357
185 182 182 180 182 180 173 177 167 174 171 170 172 176 173 171 172 167 161 162 150 129 102 104 102 109 116 104 92 80 77 77 66 71 66 63 61 61 65 70 79 82 76 68 63 54 52 45 43 45 39 51 31 78 73 97 88 62 62 57 49 40 33 334 357 314 207 149 48 1 58 43 39 23 16 27 15 13 20 350 3 2 8 2 360
184 184 182 182 186 187 179 184 177 175 178 170 179 184 179 176 180 175 164 171 157 140 153 137 121 123 122 119 121 114 90 84 86 77 80 73 67 70 70 66 71 78 80 76 68 61 63 61 46 46 49 47 41 51 59 50 57 61 33 39 62 63 45 40 14 351 332 317 150 147 143 51 22 48 14 3 27 2 23 351 358 349 9 359 351
187 185 182 185 184 187 185 183 180 181 180 177 187 182 187 181 181 177 173 171 150 153 157 152 152 147 144 136 118 101 100 83 85 94 78 72 71 69 72 75 73 78 86 84 80 75 68 66 64 57 52 52 47 45 53 46 41 48 52 47 35 32 58 50 20 11 359 327 34 48 354 126 192 124 19 348 351 2 349 351 340 332 4 352 346
188 184 185 185 185 183 187 182 182 185 181 183 191 185 188 185 184 182 178 165 168 162 165 153 165 169 157 157 150 153 130 129 110 85 83 81 77 87 81 81 81 73 73 83 88 85 80 76 71 68 67 67 58 53 53 53 51 44 43 30 33 21 35 35 24 10 12 359 329 354 15 349 337 50 42 8 346 357 346 355 329 0 357 349 347
188 186 187 190 184 185 188 185 187 189 184 187 190 187 189 189 187 185 182 178 180 172 175 173 173 185 174 168 175 156 157 119 124 117 104 90 83 70 77 87 88 94 98 102 97 98 98 92 86 81 76 77 76 75 71 64 65 55 48 44 42 45 22 36 22 12 8 6 348 355 354 2 320 321 75 30 339 13 359 346 348 3 352 346 345